Abilene Dyess, TX

5:19 PM CST on February 22, 2018 (GMT -0600)
Dyess Air Force Base

Weather History for KDYS - March, 2013

Change the Weather History Date:

Saturday, March 30, 2013

  Actual Average Record
Temperature  
Mean Temperature 72 °F -  
Max Temperature 87 °F 69 °F 92 °F (2012)
Min Temperature 57 °F 48 °F 32 °F (2011)
Cooling Degree Days 7    
Growing Degree Days 22 (Base 50)    
Moisture  
Dew Point 53 °F    
Average Humidity 60    
Maximum Humidity 90    
Minimum Humidity 16    
Precipitation  
Precipitation 0.00 in - - ()
Sea Level Pressure  
Sea Level Pressure 29.87 in    
Wind  
Wind Speed 9 mph (South)    
Max Wind Speed 17 mph    
Max Gust Speed 17 mph    
Visibility 10 miles    
Events      
Averages and records for this station are not official NWS values.
T = Trace of Precipitation, MM = Missing Value Source: NWS Daily Summary

Daily Weather History Graph

Daily Weather History Graph

Search for Another Location

Airport or City:

Trip Planner

Search our weather history database for the weather conditions in past years. The results will help you decide how hot, cold, wet, or windy it might be!

Date:

Astronomy

Mar. 30, 2013 Rise Set
Actual Time 7:29 AM CDT 7:58 PM CDT
Civil Twilight 7:05 AM CDT 8:22 PM CDT
Nautical Twilight 6:36 AM CDT 8:51 PM CDT
Astronomical Twilight 6:06 AM CDT 9:21 PM CDT
Moon 11:52 PM CDT (3/30) 9:39 AM CDT (3/30)
Length of Visible Light 13h 17m
Length of Day
12h 28m
Waning Gibbous, 86% of the Moon is Illuminated
Mar 30
Waning Gibbous
Apr 2
Last Quarter
Apr 10
New
Apr 18
First Quarter
Apr 25
Full

Hourly Weather History & Observations

Time (CDT) Temp. Heat Index Dew Point Humidity Pressure Visibility Wind Dir Wind Speed Gust Speed Precip Events Conditions
12:58 AM 66.6 °F - 56.7 °F 70% 29.94 in 10.0 mi SSE 11.5 mph - N/A   Mostly Cloudy
1:58 AM 64.8 °F - 56.1 °F 74% 29.94 in 10.0 mi SE 6.9 mph - N/A   Clear
2:58 AM 62.8 °F - 56.1 °F 79% 29.92 in 10.0 mi SE 8.1 mph - N/A   Clear
3:58 AM 57.4 °F - 54.5 °F 90% 29.91 in 10.0 mi SSE 5.8 mph - N/A   Clear
4:58 AM 59.5 °F - 55.4 °F 86% 29.90 in 10.0 mi SE 8.1 mph - N/A   Clear
5:58 AM 58.3 °F - 54.9 °F 88% 29.90 in 10.0 mi SSE 10.4 mph - N/A   Clear
6:58 AM 58.1 °F - 54.7 °F 88% 29.92 in 10.0 mi SE 10.4 mph - N/A   Clear
7:58 AM 57.4 °F - 54.5 °F 90% 29.91 in 10.0 mi SSE 8.1 mph - N/A   Clear
8:43 AM 60.8 °F - 57.2 °F 88% 30.01 in 10.0 mi South 5.8 mph - N/A   Mostly Cloudy
8:58 AM 62.1 °F - 56.7 °F 82% 29.94 in 10.0 mi South 9.2 mph - N/A   Overcast
9:53 AM 64.4 °F - 57.2 °F 77% 30.02 in 10.0 mi SSW 10.4 mph - N/A   Mostly Cloudy
9:58 AM 64.8 °F - 57.0 °F 76% 29.94 in 10.0 mi SSW 12.7 mph - N/A   Mostly Cloudy
10:23 AM 68.0 °F - 57.2 °F 68% 30.02 in 10.0 mi SW 10.4 mph - N/A   Overcast
10:48 AM 68.0 °F - 57.2 °F 68% 30.01 in 10.0 mi SW 10.4 mph - N/A   Scattered Clouds
10:58 AM 68.2 °F - 57.2 °F 68% 29.92 in 10.0 mi SSW 10.4 mph 17.3 mph N/A   Partly Cloudy
11:58 AM 73.0 °F - 57.9 °F 59% 29.90 in 10.0 mi SSE 10.4 mph - N/A   Partly Cloudy
12:58 PM 77.5 °F - 57.2 °F 49% 29.87 in 10.0 mi SW 6.9 mph - N/A   Partly Cloudy
1:58 PM 80.6 °F 80.4 °F 54.1 °F 40% 29.83 in 10.0 mi SW 9.2 mph - N/A   Partly Cloudy
2:58 PM 84.4 °F - 50.7 °F 31% 29.80 in 10.0 mi Variable 4.6 mph - N/A   Partly Cloudy
3:58 PM 85.8 °F - 46.0 °F 25% 29.78 in 10.0 mi West 5.8 mph - N/A   Clear
4:58 PM 87.8 °F - 43.2 °F 21% 29.75 in 10.0 mi WNW 6.9 mph - N/A   Scattered Clouds
5:58 PM 87.8 °F - 36.9 °F 16% 29.74 in 10.0 mi NW 10.4 mph - N/A   Clear
6:58 PM 84.7 °F - 38.7 °F 19% 29.73 in 10.0 mi NNW 5.8 mph - N/A   Partly Cloudy
7:58 PM 79.5 °F - 39.2 °F 24% 29.74 in 10.0 mi East 5.8 mph - N/A   Mostly Cloudy
8:58 PM 75.7 °F - 49.8 °F 40% 29.75 in 10.0 mi SE 5.8 mph - N/A   Partly Cloudy
9:58 PM 73.0 °F - 52.9 °F 49% 29.78 in 10.0 mi ESE 13.8 mph - N/A   Overcast
10:58 PM 71.2 °F - 56.7 °F 60% 29.79 in 10.0 mi SSE 13.8 mph - N/A   Clear
11:58 PM 69.8 °F - 57.4 °F 65% 29.78 in 10.0 mi South 17.3 mph - N/A   Clear